Location: Unspecified
(41.5000°N, 0.0000°E)
Time: 04:51:34
(UTC+00:00)

A-11 Canister half - Pass Details

Date: 26 June 2019
Orbit: 1526 x 1683 km, 47.3° (Epoch: 22 July)

Event Time Altitude Azimuth Distance (km) Brightness Sun altitude
Exits shadow 01:25:01 21° 158° (SSE) 2,980 10.1 -22.4°
Maximum altitude 01:28:22 26° 129° (SE) 2,714 10.1 -22.2°
Drops below altitude 10° 01:35:38 10° 78° (ENE) 3,728 11.4 -21.7°
Sets 01:39:18 0° 67° (ENE) 4,698 12.3 -21.4°
